Flag for Germany Weather past 2 weeks in Wermelskirchen, North Rhine-Westphalia, Germany

Now
43 °F

Broken clouds.


Feels Like: 35 °F
Forecast: 27 / 43 °F
Wind: 16 mph from Northwest

Location: Koeln / Bonn

Current Time: Feb 27, 2015 at 3:11:45 PM

Latest Report: Feb 27, 2015 at 2:50 PM


Visibility: N/A

Pressure: 30.01 "Hg

Humidity: 71%

Dew point: 34 °F

Location of WermelskirchenLocation

Historic Weather in Wermelskirchen — Graph

°F

Wermelskirchen temperature yesterday

Maximum temperature yesterday: 48 °F (at 12:50 PM)
Minimum temperature yesterday: 37 °F (at 5:50 AM)
Average temperature yesterday: 43 °F

Past Weeks' High & Low Weather Summary

 TemperatureHumidityPressure
High52 °F (Feb 15, 2:20 PM)100% (Feb 17, 10:50 AM)30.77 "Hg (Feb 17, 10:50 AM)
Low28 °F (Feb 15, 6:50 AM)38% (Feb 15, 2:20 PM)29.39 "Hg (Feb 21, 4:20 AM)
Average39 °F80%29.99 "Hg
* Reported Feb 12 1:20 PM — Feb 27 1:50 PM, Wermelskirchen, Weather by CustomWeather, © 2015

Note: Actual official high and low records may vary slightly from our data, if they occured in-between our weather recording intervals... More about our weather records

Advertising

Wermelskirchen weather history for previous 24 hours

 ConditionsComfort  
Time TempWeatherWind HumidityBarometerVisibility
1:50 PM
Fri, Feb 27
41 °FDrizzle. Broken clouds.17 mph81%29.98 "HgN/A
1:20 PM43 °FBroken clouds.14 mph76%29.98 "HgN/A
12:50 PM43 °FBroken clouds.15 mph81%29.98 "HgN/A
12:20 PM43 °FBroken clouds.14 mph81%29.95 "HgN/A
11:50 AM41 °FPartly sunny.12 mph87%29.95 "HgN/A
11:20 AM41 °FBroken clouds.13 mph93%29.95 "HgN/A
10:50 AM41 °FPartly sunny.13 mph93%29.92 "HgN/A
10:20 AM41 °FDrizzle. Partly sunny.10 mph93%29.92 "HgN/A
9:50 AM39 °FDrizzle. Mostly cloudy.13 mph93%29.92 "HgN/A
9:20 AM39 °FLight rain. Mostly cloudy.13 mph93%29.89 "HgN/A
8:50 AM39 °FLight rain. Mostly cloudy.10 mph93%29.89 "HgN/A
8:20 AM39 °FLight rain. Mostly cloudy.17 mph93%29.86 "HgN/A
7:50 AM39 °FLight rain. Partly sunny.16 mph93%29.86 "HgN/A
7:20 AM39 °FLight rain. Mostly cloudy.15 mph93%29.83 "HgN/A
6:50 AM41 °FLight rain. Mostly cloudy.18 mph93%29.80 "HgN/A
6:20 AM41 °FLight rain. Passing clouds.5 mph100%29.77 "HgN/A
5:20 AM43 °FLight rain. Passing clouds.2 mph93%29.77 "HgN/A
4:20 AM43 °FLight rain. Passing clouds.5 mph93%29.74 "HgN/A
3:50 AM43 °FLight rain. Passing clouds.6 mph93%29.77 "HgN/A
3:20 AM43 °FRain. Passing clouds.6 mph93%29.77 "HgN/A
2:50 AM43 °FLight rain. Passing clouds.7 mph93%29.77 "HgN/A
2:20 AM43 °FLight rain. Passing clouds.7 mph93%29.77 "HgN/A
1:50 AM43 °FLight rain. Mostly cloudy.8 mph93%29.77 "HgN/A
1:20 AM43 °FRain. Partly cloudy.8 mph93%29.77 "HgN/A
12:50 AM43 °FLight rain. Mostly cloudy.7 mph93%29.80 "HgN/A
12:20 AM43 °FPassing clouds.8 mph93%29.80 "Hg5 mi
11:50 PM
Thu, Feb 26
43 °FDrizzle. Mostly cloudy.8 mph93%29.80 "Hg6 mi
11:20 PM43 °FLight rain. Partly cloudy.7 mph93%29.83 "HgN/A
10:50 PM43 °FDrizzle. Mostly cloudy.8 mph93%29.83 "HgN/A
10:20 PM43 °FLight rain. Passing clouds.7 mph93%29.86 "HgN/A
9:50 PM43 °FLight rain. Passing clouds.8 mph87%29.86 "HgN/A
9:20 PM43 °FRain. Partly cloudy.10 mph87%29.86 "HgN/A
8:50 PM45 °FRain. Passing clouds.12 mph76%29.89 "HgN/A
8:20 PM46 °FPassing clouds.13 mph66%29.89 "HgN/A
7:50 PM46 °FPartly cloudy.13 mph71%29.89 "HgN/A
7:20 PM46 °FPassing clouds.13 mph71%29.92 "HgN/A
6:50 PM46 °FMostly cloudy.12 mph71%29.92 "HgN/A
6:20 PM46 °FPartly cloudy.10 mph71%29.92 "HgN/A
5:50 PM46 °FBroken clouds.13 mph71%29.92 "HgN/A
5:20 PM46 °FBroken clouds.12 mph71%29.95 "HgN/A
4:50 PM48 °FBroken clouds.14 mph66%29.95 "HgN/A
4:20 PM48 °FBroken clouds.13 mph66%29.98 "HgN/A
3:50 PM48 °FBroken clouds.13 mph66%29.98 "HgN/A
3:20 PM48 °FBroken clouds.15 mph66%29.98 "HgN/A
Weather by CustomWeather, © 2015

See weather overviewHow to use our weather pages